User: anonymous
Location: Fort Wayne
(41.1310°N, 85.1290°W)
Time: 10:46:02
(UTC-04:00)
Language:

Iridium 37 - Orbit

View from above orbital plane
View from above orbital plane
View from above satellite
View from above satellite

Ground track
Ground track

The orbit data is extracted from the following two-line orbital elements,

1 24968U 97056D   14209.48889088  .00000013  00000-0 -23202-5 0  8948
2 24968 086.3944 039.7150 0002126 103.5423 256.6010 14.34217724881360
Epoch (UTC): 28 July 2014 11:44:00
Eccentricity: 0.0002126
inclination: 86.3944°
perigee height: 776 km
apogee height: 779 km
right ascension of ascending node: 39.7150°
argument of perigee: 103.5423°
revolutions per day: 14.34217724
mean anomaly at epoch: 256.6010°
orbit number at epoch: 88136

The dashed part of the orbit path shows where the satellite is in the earth's shadow,  

DLR